Date String (YYYY-MM-DD hh:mm:ss) UTC,Instrument flags,Ambient pressure (hPa),Sample flow (lpm),Bypass flow (lpm),Sample temperature (°C),Ambient temperature (°C),ASC tube jacket temperature (°C),LED temperature (°C),Box temperature (°C),Sample RH (%),Span deviation,Mass concentration (μg/m³),Mass concentration (μg/m³),Mass concentration (μg/m³)
DateTimeUTC,F1_M11,P_M11,Q1_M11,Q2_M11,T1_M11,T2_M11,T3_M11,T4_M11,T5_M11,U1_M11,ZSPAN_M11,X0_M11,X2_M11,X1_M11
2023-02-24 11:00:00,,0825.2,5.03,0.00,22.6,21.3,00.0,31.3,24.1,04.1,0001.2,0010.11,0006.15,0005.67
2023-02-24 11:01:00,,0825.3,5.01,0.00,22.5,20.9,00.0,31.3,24.0,04.1,0001.4,0010.31,0006.20,0005.73
2023-02-24 11:02:00,,0825.2,5.00,0.00,22.5,20.6,00.0,31.3,23.9,04.1,0002.3,0010.32,0006.16,0005.71
2023-02-24 11:03:00,,0825.2,5.03,0.00,22.5,21.2,00.0,31.3,24.0,04.1,0002.6,0010.28,0006.15,0005.72
2023-02-24 11:04:00,,0825.2,5.04,0.00,22.6,22.2,00.0,31.3,24.3,04.1,0003.0,0010.25,0006.14,0005.73
2023-02-24 11:05:00,,0825.3,5.05,0.00,22.7,23.1,00.0,31.3,24.5,04.0,0002.4,0010.17,0006.10,0005.69
2023-02-24 11:06:00,,0825.3,5.07,0.00,22.8,23.6,00.0,31.3,24.7,04.0,0000.0,0010.19,0006.02,0005.64
2023-02-24 11:07:00,,0825.2,5.01,0.00,22.8,23.0,00.0,31.3,24.6,04.0,0000.0,0010.33,0005.93,0005.57
2023-02-24 11:08:00,,0825.2,5.00,0.00,22.7,22.2,00.0,31.3,24.3,04.0,0000.0,0012.08,0005.86,0005.52
2023-02-24 11:09:00,,0825.0,4.99,0.00,22.7,21.7,00.0,31.4,24.2,04.0,0000.0,0012.71,0005.88,0005.50
2023-02-24 11:10:00,,0825.0,4.97,0.00,22.6,21.2,00.0,31.3,24.1,04.1,0000.0,0013.18,0005.87,0005.48
2023-02-24 11:11:00,,0825.1,5.00,0.00,22.5,20.8,00.0,31.3,23.9,04.1,0000.0,0012.93,0005.86,0005.48
2023-02-24 11:12:00,,0825.1,5.00,0.00,22.5,20.8,00.0,31.3,23.9,04.1,0000.0,0012.59,0005.84,0005.44
2023-02-24 11:13:00,,0825.2,5.03,0.00,22.5,21.8,00.0,31.3,24.1,04.1,0000.0,0012.64,0005.83,0005.43
2023-02-24 11:14:00,,0825.1,4.95,0.00,22.6,22.7,00.0,31.3,24.4,04.1,0000.0,0013.22,0005.83,0005.42
2023-02-24 11:15:00,,0825.2,4.98,0.00,22.7,23.3,00.0,31.3,24.6,04.0,0000.0,0013.19,0005.81,0005.41
2023-02-24 11:16:00,,0825.1,5.04,0.00,22.7,22.8,00.0,31.3,24.5,04.0,0000.0,0013.23,0005.80,0005.40
2023-02-24 11:17:00,,0825.0,4.99,0.00,22.7,22.0,00.0,31.3,24.3,04.0,0000.0,0013.25,0005.82,0005.41
2023-02-24 11:18:00,,0825.0,5.01,0.00,22.6,21.5,00.0,31.3,24.2,04.0,0000.0,0014.07,0005.85,0005.43
2023-02-24 11:19:00,,0825.0,4.98,0.00,22.6,21.1,00.0,31.3,24.0,04.1,0000.0,0013.41,0005.89,0005.45
2023-02-24 11:20:00,,0825.0,5.01,0.00,22.5,20.7,00.0,31.3,23.9,04.1,0000.0,0012.20,0005.84,0005.44
2023-02-24 11:21:00,,0825.1,5.01,0.00,22.5,21.2,00.0,31.3,24.0,04.1,0000.0,0012.09,0005.80,0005.41
2023-02-24 11:22:00,,0825.0,5.00,0.00,22.6,22.2,00.0,31.3,24.3,04.1,0000.0,0012.10,0005.75,0005.37
2023-02-24 11:23:00,,0824.9,5.03,0.00,22.7,22.9,00.0,31.3,24.5,04.1,0000.0,0012.07,0005.70,0005.34
2023-02-24 11:24:00,,0824.9,5.01,0.00,22.8,23.1,00.0,31.3,24.6,04.1,0000.0,0012.03,0005.68,0005.30
2023-02-24 11:25:00,,0824.9,5.00,0.00,22.7,22.4,00.0,31.3,24.4,04.1,0000.0,0011.42,0005.63,0005.25
2023-02-24 11:26:00,,0824.9,5.01,0.00,22.7,21.8,00.0,31.3,24.3,04.1,0000.0,0011.39,0005.62,0005.22
2023-02-24 11:27:00,,0824.9,5.01,0.00,22.6,21.4,00.0,31.3,24.1,04.1,0000.0,0011.42,0005.63,0005.19
2023-02-24 11:28:00,,0824.8,5.01,0.00,22.5,21.0,00.0,31.3,24.0,04.1,0000.0,0011.35,0005.60,0005.17
2023-02-24 11:29:00,,0824.7,4.99,0.00,22.5,20.8,00.0,31.3,23.9,04.1,0000.0,0010.52,0005.57,0005.13
2023-02-24 11:30:00,,0824.7,4.98,0.00,22.5,21.7,00.0,31.3,24.2,04.1,0000.0,0009.79,0005.55,0005.12
2023-02-24 11:31:00,,0824.8,5.02,0.00,22.6,22.7,00.0,31.3,24.4,04.1,0000.0,0009.71,0005.59,0005.13
2023-02-24 11:32:00,,0824.8,5.01,0.00,22.7,23.2,00.0,31.3,24.6,04.0,0000.0,0009.81,0005.63,0005.17
2023-02-24 11:33:00,,0824.9,5.00,0.00,22.7,22.8,00.0,31.3,24.5,04.0,0000.0,0009.62,0005.68,0005.22
2023-02-24 11:34:00,,0824.9,4.99,0.00,22.7,22.1,00.0,31.3,24.3,04.0,0000.0,0009.76,0005.79,0005.30
2023-02-24 11:35:00,,0824.8,4.98,0.00,22.6,21.5,00.0,31.3,24.2,04.0,0000.0,0009.84,0005.87,0005.38
2023-02-24 11:36:00,,0824.7,5.03,0.00,22.6,21.1,00.0,31.3,24.0,04.1,0000.0,0010.00,0005.94,0005.45
2023-02-24 11:37:00,,0824.7,5.01,0.00,22.5,20.7,00.0,31.3,23.9,04.1,0000.0,0010.09,0005.97,0005.49
2023-02-24 11:38:00,,0824.7,5.01,0.00,22.5,21.1,00.0,31.3,24.0,04.1,0000.0,0010.02,0005.96,0005.50
2023-02-24 11:39:00,,0824.7,5.00,0.00,22.6,22.1,00.0,31.2,24.3,04.1,0000.0,0009.97,0005.94,0005.52
2023-02-24 11:40:00,,0824.7,5.04,0.00,22.7,22.9,00.0,31.3,24.5,04.1,0000.0,0009.98,0005.98,0005.57
2023-02-24 11:41:00,,0824.6,5.03,0.00,22.8,23.5,00.0,31.3,24.7,04.0,0000.6,0010.03,0006.01,0005.60
2023-02-24 11:42:00,,0824.6,4.98,0.00,22.8,23.1,00.0,31.3,24.6,04.0,0000.8,0010.03,0006.01,0005.62
2023-02-24 11:43:00,,0824.7,4.97,0.00,22.8,22.3,00.0,31.3,24.4,04.0,0000.9,0009.72,0006.01,0005.63
2023-02-24 11:44:00,,0824.5,4.98,0.00,22.7,21.7,00.0,31.4,24.2,04.0,0000.6,0009.80,0006.00,0005.61
2023-02-24 11:45:00,,0824.8,5.02,0.00,22.6,21.2,00.0,31.3,24.1,04.0,0000.0,0009.87,0005.93,0005.55
2023-02-24 11:46:00,,0824.7,5.00,0.00,22.5,20.9,00.0,31.3,24.0,04.1,0000.0,0010.07,0005.86,0005.49
2023-02-24 11:47:00,,0824.7,5.00,0.00,22.5,21.1,00.0,31.3,24.0,04.1,0000.0,0009.86,0005.80,0005.44
2023-02-24 11:48:00,,0824.6,4.99,0.00,22.6,22.1,00.0,31.3,24.3,04.1,0000.0,0009.66,0005.76,0005.41
2023-02-24 11:49:00,,0824.6,5.04,0.00,22.7,22.8,00.0,31.3,24.5,04.1,0000.0,0009.62,0005.73,0005.39
2023-02-24 11:50:00,,0824.4,5.01,0.00,22.8,23.4,00.0,31.3,24.7,04.1,0000.0,0009.63,0005.72,0005.36
2023-02-24 11:51:00,,0824.4,4.98,0.00,22.8,23.1,00.0,31.4,24.6,04.1,0000.0,0009.53,0005.65,0005.28
2023-02-24 11:52:00,,0824.5,4.99,0.00,22.8,22.3,00.0,31.4,24.4,04.1,0000.0,0009.37,0005.58,0005.23
2023-02-24 11:53:00,,0824.6,5.00,0.00,22.7,21.7,00.0,31.4,24.3,04.1,0000.0,0009.24,0005.54,0005.19
2023-02-24 11:54:00,,0824.4,5.01,0.00,22.6,21.2,00.0,31.4,24.1,04.1,0000.0,0009.71,0005.52,0005.16
2023-02-24 11:55:00,,0824.4,5.00,0.00,22.6,20.9,00.0,31.4,24.0,04.1,0000.0,0009.83,0005.48,0005.13
2023-02-24 11:56:00,,0824.3,5.01,0.00,22.5,20.7,00.0,31.3,23.9,04.1,0000.0,0009.60,0005.45,0005.12
2023-02-24 11:57:00,,0824.3,4.99,0.00,22.5,21.4,00.0,31.3,24.1,04.1,0000.0,0009.45,0005.45,0005.14
2023-02-24 11:58:00,,0824.4,5.00,0.00,22.6,22.3,00.0,31.3,24.3,04.1,0000.0,0009.58,0005.48,0005.16
2023-02-24 11:59:00,,0824.4,4.93,0.00,22.7,23.1,00.0,31.3,24.6,04.1,0000.0,0009.75,0005.53,0005.21
